www.pogodaiklimat.ru

Погода и климат >> Архив погоды >> Россия >> Якутия >> Тюмяти


ПОГОДА в Тюмяти

  • Прогноз погоды в Тюмяти
  • Монитор погоды в Тюмяти

АРХИВ ПОГОДЫ в Тюмяти

Время (UTC), дата Ветер
(напр.,м/с)
 
Видим.   Явления Облачность Т
(С)
Тd
(С)
f
(%)
Тe
(С)
Тes
(С)
Комфортность P
(гПа)
Po
(гПа)
Тmin
(С)
Tmax
(С)
R
(мм)
R24
(мм)
S
(см)
09 10.07 ЮЗ 4 20 км гроза, пыльная буря 10/6 300 м
[Cb cap Ac trans Ci fib]
+25.6 +12.7 45 +27 +28 жарко 999.4 996.4
12 10.07 З 2 20 км гроза без осадков 10/8 300 м
[Cb cap Ac trans]
+19.6 +15.2 76 +22 +22 комфорт 1001.2 998.1 +27.6
15 10.07 штиль 0 20 км {гроза, ливн. осадки} 6/3 600 м
[Cb cap Ac trans Ci fib]
+16.0 +14.6 91 +16 +16 1003.0 999.9
18 10.07 С 1 20 км {гроза, ливн. осадки} 10/6 600 м
[Cb cap Ac trans]
+12.8 +11.7 93 +13 +13 1004.9 1001.7
21 10.07 С 2 20 км 10/8 600 м
[Cb cap Ac trans Ci fib]
+12.6 +10.7 88 +12 +12 1007.9 1004.7
00 11.07 С 3 4000 м ливневой дождь 10/10 600 м
[Cb cap]
+12.7 +10.2 85 +11 +11 1009.0 1005.8 +12.3 2
03 11.07 СЗ 2 20 км {ливн. осадки} 10/10 600 м
[Cb cap]
+12.6 +10.4 86 +12 +12 1010.1 1006.9
06 11.07 З 2 20 км {ливн. осадки} 10/10 600 м
[Cb cap]
+14.2 +8.7 69 +14 +14 1010.9 1007.7
09 11.07 СЗ 1 20 км 10/10 600 м
[Cb cap]
+15.3 +8.9 66 +16 +16 1011.3 1008.1
12 11.07 штиль 0 20 км 8/5 600 м
[Sc Ac trans Ci fib]
+15.9 +10.2 69 +16 +16 1011.0 1007.8 +17.1 4
15 11.07 Ю 3 20 км 10/8 600 м
[Sc Ac trans]
+13.7 +10.9 83 +13 +13 1010.6 1007.4
18 11.07 ЮВ 3 20 км 10/10 600 м
[Sc]
+12.5 +10.4 87 +11 +11 1009.8 1006.6
21 11.07 В 2 10 км слаб. дождь 10/0
[Ac As]
+11.7 +10.7 94 +10 +11 1008.3 1005.1
00 12.07 В 3 10 км слаб. дождь 10/3 600 м
[Sc Ac trans]
+12.6 +12.2 97 +11 +12 1004.6 1001.4 +10.9 3
03 12.07 штиль 0 10 км слаб. дождь 10/0
[Ac As]
+15.1 +14.6 97 +15 +18 1002.6 999.5
06 12.07 З 1 10 км слаб. дождь 10/4 600 м
[Sc Ac As]
+14.8 +14.1 96 +15 +17 1003.5 1000.4
09 12.07 З 2 10 км слаб. дождь 10/5 300 м
[Sc Ac As]
+13.5 +12.6 94 +13 +13 1005.5 1002.3
12 12.07 СЗ 5 20 км в посл. час ливневой дождь 10/10 300 м
[Cb cap]
+9.9 +9.3 96 +7 +7 1007.8 1004.6 +15.6 5
15 12.07 ЮЗ 2 20 км 10/10 300 м
[Sc]
+9.0 +7.3 89 +7 +7 1009.4 1006.2
18 12.07 З 3 20 км 5/5 300 м
[Sc]
+8.6 +6.2 85 +6 +6 1009.9 1006.7
21 12.07 З 4 20 км 9/9 600 м
[Sc]
+8.7 +5.4 80 +6 +6 1010.9 1007.6
00 13.07 ЮЗ 3 20 км 10/4 600 м
[Sc Ac trans Ci fib]
+10.2 +6.4 77 +8 +10 1011.1 1007.9 +8.1
03 13.07 З 1 20 км 10/4 600 м
[Sc Ci fib]
+14.8 +7.8 63 +15 +20 1009.8 1006.6
06 13.07 штиль 0 20 км 8/6 600 м
[Cb cap Ac trans Ci fib]
+18.1 +8.7 54 +18 +21 1008.0 1004.9
09 13.07 Ю 1 20 км 10/6 600 м
[Cb cap Ac trans]
+16.6 +12.1 75 +17 +18 1007.2 1004.1
12 13.07 Ю 2 20 км 10/3 600 м
[Sc Ac trans]
+15.0 +10.5 74 +15 +15 1007.2 1004.0 +19.2
15 13.07 Ю 2 20 км 10/3 600 м
[Sc Ac trans]
+14.2 +11.6 84 +14 +14 1006.2 1003.0
18 13.07 ЮЗ 1 20 км 10/3 600 м
[Sc Ac trans]
+13.4 +10.3 81 +14 +14 1006.2 1003.0
21 13.07 С 2 10 км слаб. дождь 10/10 600 м
[Sc]
+11.2 +10.8 97 +10 +10 1007.0 1003.8
00 14.07 СВ 2 20 км {дождь} 10/10 600 м
[Sc]
+11.1 +9.7 91 +10 +10 1008.2 1005.0 +10.6 0.7
03 14.07 С 3 20 км 8/8 600 м
[Sc]
+13.5 +5.7 59 +13 +14 1009.9 1006.7
06 14.07 СЗ 3 20 км 8/8 600 м
[Sc]
+13.4 +4.0 53 +12 +14 1011.4 1008.2
09 14.07 СЗ 4 20 км 8/8 600 м
[Sc]
+13.4 +4.0 53 +12 +13 1012.7 1009.5
12 14.07 З 3 20 км 8/8 600 м
[Sc]
+15.2 +4.2 48 +15 +15 1012.2 1009.0 +16.1
15 14.07 З 3 20 км 3/3 600 м
[Sc]
+11.1 +4.5 64 +9 +10 1012.1 1008.9
18 14.07 З 2 20 км 10/10 600 м
[Sc]
+6.9 +5.1 88 +5 +5 1013.9 1010.6
21 14.07 З 4
{11}
20 км 10/10 600 м
[Sc]
+7.1 +2.8 74 +4 +4 1014.4 1011.1
00 15.07 СЗ 7
{11}
20 км 6/6 600 м
[Sc]
+9.3 +2.2 61 +6 +6 1014.4 1011.2 +6.0
03 15.07 З 6
{11}
20 км 10/10 600 м
[Sc]
+11.2 +2.1 53 +9 +9 1014.6 1011.4
06 15.07 З 3 20 км 8/8 600 м
[Sc]
+12.1 +2.8 53 +11 +12 1014.6 1011.4
09 15.07 З 4 20 км 10/10 600 м
[]
+13.0 +11.2 89 +11 +11 1014.4 1011.1
12 15.07 З 3 20 км 10/10 600 м
[Sc]
+13.3 +3.8 53 +12 +12 1014.6 1011.4 +13.3
15 15.07 СЗ 2 20 км 9/3 600 м
[Sc Ac trans]
+10.6 +5.9 73 +9 +9 1014.6 1011.4
18 15.07 З 2 20 км 6/1 600 м
[Sc Ac trans]
+7.1 +4.1 81 +5 +5 1014.6 1011.3
21 15.07 З 3 20 км 1/0
[Ac trans]
+9.1 +3.3 67 +7 +8 1014.8 1011.5
00 16.07 З 4 20 км 4/0
[Ac trans Ci fib]
+12.4 +2.3 50 +11 +14 1014.2 1011.0 +6.2
03 16.07 С 4 20 км 6/3 600 м
[Sc Ac trans Ci fib]
+14.8 +4.0 48 +14 +17 1013.2 1010.0
06 16.07 С 2 20 км 8/6 600 м
[Sc Ac trans Ci fib]
+16.4 +5.6 49 +17 +19 1012.0 1008.8
09 16.07 СВ 4 20 км 6/4 600 м
[Sc Ac trans Ci fib]
+16.4 +4.6 45 +16 +17 1011.3 1008.1
12 16.07 СВ 3 20 км 3/0
[Ac trans Ci fib]
+14.8 +5.8 55 +14 +15 1010.8 1007.6 +17.6
15 16.07 СВ 1 20 км 8/0
[Ac trans]
+9.4 +6.6 83 +9 +9 1010.5 1007.3
18 16.07 СВ 3 20 км 8/4 600 м
[Sc Ac trans Ci fib]
+7.0 +5.2 88 +4 +4 1010.4 1007.1
21 16.07 СВ 3 20 км 10/10 600 м
[Sc]
+6.8 +4.0 82 +4 +4 1010.7 1007.4
00 17.07 СВ 3 20 км 10/10 600 м
[Sc]
+7.5 +4.8 83 +5 +5 1011.9 1008.6 +6.0
03 17.07 СВ 3 20 км 9/9 600 м
[Sc]
+7.2 +3.8 79 +4 +5 1013.7 1010.4

 

Местоположение метеостанции Тюмяти (Якутия, Россия): широта 71.92 долгота 123.50 высота над уровнем моря 27 м.

В архиве по умолчанию представлена погода в Тюмяти за последнюю неделю. Архивные данные за месяц целиком и за предыдущие месяцы, начиная с января 2011 года, Вы можете получить, выбрав интересующий диапазон дат из раскрывающегося списка и нажав кнопку "Ввод!".


*Определитесь, кто Вы:
робот инопланетянин человек

Внимание! Время в таблицах - всемирное. Для получения местного времени необходимо прибавить поправку, которая равна 9 ч.

Смотрите также архив погоды в соседних городах и на ближайших метеорологических станциях:

Погода на Столб Острове (Якутия, Россия) (109 км)
Погода на Усть-Оленеке (Якутия, Россия) (173 км)
Погода в Тикси (Якутия, Россия) (192 км)
Погода на Мысе Быков (Якутия, Россия) (193 км)
Погода в Кюсюре (Якутия, Россия) (196 км)
Погода в Саскылахе (Якутия, Россия) (327 км)
Погода в Джарджане (Якутия, Россия) (355 км)
Погода в Анабаре (Якутия, Россия) (363 км)
Погода в Джалинде (Якутия, Россия) (400 км)
Погода в Сухане (Якутия, Россия) (415 км)

Пояснения к столбцам:

Ветер - указаны скорость ветра в м/с - средняя за 10 мин, порывы в срок и между сроками (в фигурных скобках) и направление, откуда дует ветер: С - северный, СВ - северо-восточный, В - восточный, ЮВ - юго-восточный, Ю - южный, ЮЗ - юго-западный, З - западный, СЗ - северо-западный.
Видимость - горизонтальная дальность видимости в метрах или километрах. При видимости от 1 до 10 км при отсутствии осадков обычно наблюдается дымка, при ухудшении видимости до 1 км и менее - туман. В сухую погоду видимость может ухудшаться дымом, пылью или мглою.
Явления - указаны атмосферные явления, наблюдавшиеся в срок или в последний час перед сроком; фигурными скобками обозначены явления, наблюдавшиеся между сроками (за 1-3 часа до срока); квадратными скобками обозначены град или гололедные отложения с указанием их диаметра в мм.
Облачность - указаны через наклонную черту общая и нижняя облачность в баллах и высота нижней границы облаков в метрах; квадратными скобками обозначены формы облаков: Ci - перистые, Cs - перисто-слоистые, Cc - перисто-кучевые, Ac - высококучевые, As - высокослоистые, Sc - слоисто-кучевые, Ns - слоисто-дождевые, Cu - кучевые, Cb - кучево-дождевые. Подробнее классификацию облаков см. в Атласе облаков (PDF).
T - Температура воздуха - температура, измеренная на высоте 2 м над землей.
Td - Температура точки росы - температура, при понижении до которой содержащийся в воздухе водяной пар достигнет насыщения.
f - Относительная влажность воздуха - влажноcть воздуха, измеренная на высоте 2 м над землей.
Te - Эффективная температура - температура, которую ощущает одетый по сезону человек в тени. Характеристика душности погоды. При расчете учитывается влияние влажности воздуха и скорости ветра на теплоощущения человека.
Tes - Эффективная температура на солнце - температура, которую ощущает человек, с поправкой на солнечный нагрев. Характеристика знойности погоды. Зависит от высоты солнца над горизонтом, облачности и скорости ветра. Ночью, в пасмурную погоду, а также при ветре 12 м/с и более поправка равна нулю.
P - Атмосферное давление - приведенное к уровню моря атмосферное давление.
Po - Атмосферное давление - измеренное на уровне метеостанции атмосферное давление.
Tmin - Минимальная температура - минимум температуры воздуха на высоте 2 м над землей.
Tmax - Максимальная температура - максимум температуры воздуха на высоте 2 м над землей.
R - Количество осадков - Количество выпавших осадков за период времени, мм. При наведении курсора мыши на число - период времени, за который выпало указанное количество осадков.
R24 - Количество осадков - Количество выпавших осадков за 24 часа, мм.
S - Снежный покров - Высота снежного покрова, см. При наведении курсора мыши на число - состояние снежного покрова и степень покрытия местности в баллах.